This demonstration page uses our WeatherBlox Daily Observations layout. Learn more.

39.92423, -83.80882

Hourly Observations for July 14, 2016

Temp ( °F °C ) Dew Point ( °F °C ) Humidity (%) Winds ( mph kmh ) Pressure ( in mb ) Visibility ( mi km ) Precip ( " mm )
12:58 am 00:58 Cloudy 69 20.5 69 20.5 100 100 S 7 11 29.91 1013 10 16.0934 0 0
1:38 am 01:38 Cloudy 70 21 70 21 100 100 SSW 14 22 29.91 1013 10 16.0934 0 0
1:58 am 01:58 Mostly Cloudy 70 21.2 69 20.6 96 96 SW 15 24 29.93 1014 10 16.0934 0 0
2:44 am 02:44 Mostly Cloudy 70 21 70 21 100 100 SW 12 19 29.91 1013 10 16.0934 0 0
2:58 am 02:58 Partly Cloudy 69 20.6 69 20.6 100 100 SW 10 17 29.93 1014 10 16.0934 0 0
3:58 am 03:58 Mostly Clear 68 20.1 68 20.1 100 100 SW 7 11 29.92 1013 10 16.0934 0 0
4:58 am 04:58 Mostly Clear 68 19.8 68 19.8 100 100 SW 6 9 29.92 1013 10 16.0934 0 0
5:58 am 05:58 Clear 67 19.3 67 19.3 100 100 S 6 9 29.91 1013 10 16.0934 0 0
6:58 am 06:58 Sunny 67 19.2 67 19.2 100 100 S 5 7 29.93 1014 10 16.0934 0 0
7:58 am 07:58 Sunny 71 21.6 69 20.4 93 93 SW 15 24 29.95 1014 10 16.0934 0 0
8:58 am 08:58 Mostly Cloudy 74 23.4 69 20.4 83 83 WSW 13 20 29.95 1014 10 16.0934 0 0
9:58 am 09:58 Sunny 76 24.2 69 20.4 79 79 WSW 10 17 29.95 1014 10 16.0934 0 0
11:38 am 11:38 Mostly Cloudy 79 26 70 21 74 74 W 9 15 29.94 1014 10 16.0934 0 0
11:58 am 11:58 Partly Cloudy 80 26.8 70 21.1 71 71 WSW 9 15 29.95 1014 10 16.0934 0 0
12:58 pm 12:58 Sunny 82 27.8 71 21.4 68 68 WNW 10 17 29.96 1015 10 16.0934 0 0
1:58 pm 13:58 Mostly Cloudy 84 28.8 69 20.7 62 62 SW 10 17 29.94 1014 10 16.0934 0 0
3:58 pm 15:58 Cloudy with Nearby Thunderstorms 81 27.2 69 20.7 68 68 NW 8 13 29.92 1013 10 16.0934 0 0
4:15 pm 16:15 Cloudy with Nearby Thunderstorms 79 26 72 22 79 79 NNW 7 11 29.88 1012 10 16.0934 0 0
4:25 pm 16:25 Cloudy with Nearby Thunderstorms 77 25 73 23 89 89 WNW 8 13 29.91 1013 1 1.60934 0 0
4:33 pm 16:33 Cloudy with Heavy Thunderstorms 75 24 73 23 94 94 SW 9 15 29.91 1013 0.5 0.80467 0 0
4:48 pm 16:48 Cloudy with Heavy Thunderstorms 72 22 72 22 100 100 SW 18 30 29.94 1014 0.75 1.207005 0 0
4:58 pm 16:58 Cloudy with Heavy Thunderstorms 72 22 72 22 100 100 WSW 9 15 29.95 1014 0.5 0.80467 1.06 26.924
5:04 pm 17:04 Mostly Cloudy with Light Thunderstorms 72 22 72 22 100 100 WSW 3 6 29.91 1013 4 6.43736 0 0
5:17 pm 17:17 Partly Cloudy with Nearby Thunderstorms 73 23 73 23 100 100 WSW 6 9 29.91 1013 10 16.0934 0 0
5:43 pm 17:43 Mostly Cloudy with Light Showers 75 24 75 24 100 100 SW 8 13 29.91 1013 10 16.0934 0 0
5:58 pm 17:58 Mostly Cloudy 75 23.8 74 23.6 99 99 SW 8 13 29.92 1013 10 16.0934 0.12 3.048
6:58 pm 18:58 Mostly Cloudy 77 25.2 73 22.8 87 87 SW 8 13 29.89 1012 10 16.0934 0 0
7:58 pm 19:58 Sunny 76 24.7 73 22.9 90 90 S 7 11 29.92 1013 10 16.0934 0 0
8:58 pm 20:58 Sunny 75 24 73 23 94 94 SSW 5 7 29.92 1013 10 16.0934 0 0
9:58 pm 21:58 Clear 73 22.7 73 22.7 100 100 SW 5 7 29.91 1013 10 16.0934 0 0
10:38 pm 22:38 Clear 73 23 73 23 100 100 S 5 7 29.91 1013 9 14.48406 0 0
10:58 pm 22:58 Clear 72 22.3 72 22.3 100 100 S 3 6 29.91 1013 10 16.0934 0 0
11:58 pm 23:58 Clear 72 22.2 72 22.2 100 100 SSW 7 11 29.94 1014 10 16.0934 0 0

Powered by AerisWeather